Grizzly Air Cargo 5146


PAPG
Petersburg James A Johnson Airport
Petersburg, Alaska, US
PAJN
Juneau International Airport
Juneau, Alaska, US

Activity Log

Date Flight Route Aircraft Duration
No Flights Yet

Route Details

Aircraft Information
Primary: Boeing 727-200F
Backup: Boeing 737-800BCF
Route Data
Distance: 124nm
Sched. Duration: 0h 35m
Avg. Duration: 0h 00m (-35m)
Times Flown: 0
Recm'd Route: GORBY4 ODECO R1050 STVNS
Planned Altitude: 20,000ft
Origin Wx: PAPG 261256Z AUTO 00000KT 7SM -RA OVC019 06/06 A3017 RMK AO2 SLP221 P0006 T00610061
Dest. Wx: PAJN 261253Z 00000KT 10SM FEW007 BKN032 OVC048 07/06 A3013 RMK AO2 SLP201 BINOVC T00720056 $
Notes:

Financial History
Total Freight: 0lbs
Average Load: 0lbs/flt
Fuel Used: 0lbs
Avg. Fuel Used: 0lbs/flt
Fuel Expense: $0
Avg. Fuel Expense: $0
Avg. Fuel Cost: $0/lbs
Total Gross Income: $0
Pilot Pay: $0
Total Expenses: $0
Total Revenue: $0
Average Revenue: $0